Find Kosmos-2390

NORAD ID: 27464 Int'l Des: 2002-036 Owner: KVR Country: RU operational
LEOCIRCULARPOLAR

Live-Position

3D-Globus wird geladen...

Über Kosmos-2390

Beschreibung wird geladen...

Nächste Überflüge

Passes for default location (London). Set your location on the main map for personalized predictions.

Höhenverlauf

Loading altitude history...

Zweizeiliger Elementsatz

1 27464U 02036A 26104.61815134 .00000016 00000-0 44926-4 0 9992
2 27464 82.4881 24.6998 0026484 38.8809 321.4170 12.44621298 79760
Epoch: 14. Apr. 2026 • Age: 8 hours

Aktueller Status

Höhe 1469.6 km
Geschwindigkeit 7.14 km/s
Subsatellitenpunkt 18.90°N, 155.85°W
Startdatum 8. Juli 2002
Alter 23.7 years
Typ other

Technische Details

Klassifizierung Payload
Masse 225.00 kg
Trockenmasse 225.00 kg
Gesamtmasse 225.00 kg
Länge 1.60 m
Durchmesser 0.80 m
Spannweite 7.00 m
Form Cyl + Ant
Hersteller NPOPMR
Bus-Typ Strela-3
Phasenstatus In Orbit
Besitzer/Staat KVR/RU

Most Searched